KC0VVH Weather Reports


Display with metric or nautical units.
time (UTC)temp
F
wind
direction
speed
MPH
gust
MPH
rain 1hr
in
rain 24hr
in
rain mn
in
humidity
%
barometer
mb
20260505180915 69 198 2.0 14.0 0.00 0.00 0.00 16 1017.9
20260505180036 69 218 6.0 16.0 0.00 0.00 0.00 16 1017.9
20260505175403 69 314 5.0 16.0 0.00 0.00 0.00 16 1017.9
20260505174503 68 347 3.0 15.0 0.00 0.00 0.00 21 1017.9
20260505173615 67 91 1.0 6.0 0.00 0.00 0.00 28 1017.9
20260505172715 67 318 2.0 8.0 0.00 0.00 0.00 33 1017.9
20260505171815 67 70 4.0 10.0 0.00 0.00 0.00 33 1017.9
20260505170915 66 71 2.0 9.0 0.00 0.00 0.00 34 1017.9
20260505170003 66 71 2.0 6.0 0.00 0.00 0.00 35 1017.9
20260505165403 67 71 2.0 6.0 0.00 0.00 0.00 36 1017.9
20260505164515 66 71 1.0 5.0 0.00 0.00 0.00 36 1017.9
20260505163615 66 71 1.0 9.0 0.00 0.00 0.00 38 1017.9
20260505162715 65 74 2.0 9.0 0.00 0.00 0.00 36 1017.9
20260505161836 64 75 1.0 7.0 0.00 0.00 0.00 35 1017.9
20260505160924 63 76 1.0 5.0 0.00 0.00 0.00 39 1017.9
20260505152715 62 193 0.0 3.0 0.00 0.00 0.00 46 1017.9
20260505151815 61 193 0.0 3.0 0.00 0.00 0.00 48 1017.9
20260505150915 61 194 1.0 5.0 0.00 0.00 0.00 49 1017.9
20260505124536 50 0 0.0 0.0 0.00 0.00 0.00 58 1017.9
20260505123615 51 0 0.0 0.0 0.00 0.00 0.00 63 1017.9
20260505122703 51 0 0.0 1.0 0.00 0.00 0.00 62 1017.9
20260505121815 51 0 0.0 0.0 0.00 0.00 0.00 47 1017.9
20260505120903 52 205 1.0 5.0 0.00 0.00 0.00 48 1017.9
20260505120015 53 205 1.0 5.0 0.00 0.00 0.00 62 1017.9
20260505115415 52 205 1.0 4.0 0.00 0.00 0.00 63 1017.9
20260505114515 52 205 1.0 5.0 0.00 0.00 0.00 64 1017.9
20260505113615 52 205 1.0 6.0 0.00 0.00 0.00 64 1017.9
20260505112715 52 207 3.0 7.0 0.00 0.00 0.00 64 1017.9
20260505111803 52 214 1.0 7.0 0.00 0.00 0.00 65 1017.9
20260505110915 52 215 0.0 4.0 0.00 0.00 0.00 65 1017.9
20260505101815 53 189 0.0 3.0 0.00 0.00 0.00 62 1017.9
20260505100915 54 189 0.0 3.0 0.00 0.00 0.00 61 1017.9
20260505100024 54 190 0.0 3.0 0.00 0.00 0.00 59 1017.9
20260505095415 55 181 2.0 10.0 0.00 0.00 0.00 59 1017.9
20260505094503 54 202 3.0 9.0 0.00 0.00 0.00 60 1017.9
20260505093615 53 205 1.0 6.0 0.00 0.00 0.00 61 1017.9
20260505092703 53 208 1.0 4.0 0.00 0.00 0.00 62 1017.9
20260505091815 53 211 1.0 5.0 0.00 0.00 0.00 61 1017.9
20260505090915 52 196 2.0 7.0 0.00 0.00 0.00 62 1017.9
20260505090003 51 0 0.0 0.0 0.00 0.00 0.00 59 1017.9
20260505085415 52 0 0.0 0.0 0.00 0.00 0.00 59 1017.9
20260505084515 52 198 0.0 3.0 0.00 0.00 0.00 58 1017.9
20260505083603 52 0 0.0 0.0 0.00 0.00 0.00 60 1017.9
20260505082715 51 0 0.0 0.0 0.00 0.00 0.00 60 1017.9
20260505081803 51 0 0.0 0.0 0.00 0.00 0.00 63 1017.9
20260505080903 51 0 0.0 1.0 0.00 0.00 0.00 66 1017.9
20260505080003 50 0 0.0 1.0 0.00 0.00 0.00 67 1017.9
20260505075415 50 0 0.0 0.0 0.00 0.00 0.00 68 1017.9
20260505074503 50 0 0.0 0.0 0.00 0.00 0.00 67 1017.9
20260505073615 50 0 0.0 0.0 0.00 0.00 0.00 67 1017.9
20260505063603 55 0 0.0 0.0 0.00 0.00 0.00 58 1017.9
20260505062703 56 0 0.0 0.0 0.00 0.00 0.00 57 1017.9
20260505061803 56 198 0.0 2.0 0.00 0.00 0.00 57 1017.9
20260505060903 56 0 0.0 1.0 0.00 0.00 0.00 58 1017.9
20260505060003 56 0 0.0 0.0 0.00 0.00 0.00 57 1017.9
20260505055403 56 0 0.0 0.0 0.00 0.00 0.00 56 1017.9
20260505054503 57 0 0.0 0.0 0.00 0.00 0.00 55 1017.9
20260505053603 58 0 0.0 0.0 0.00 0.00 0.00 53 1017.9
20260505052703 58 0 0.0 0.0 0.00 0.00 0.00 52 1017.9
20260505051803 58 198 0.0 4.0 0.00 0.00 0.00 52 1017.9
20260505050903 59 198 0.0 5.0 0.00 0.00 0.00 52 1017.9
20260505040903 61 0 0.0 1.0 0.00 0.00 0.00 45 1017.9
20260505040003 61 271 0.0 2.0 0.00 0.00 0.00 45 1017.9
20260505035403 61 271 0.0 2.0 0.00 0.00 0.00 45 1017.9
20260505034503 61 271 0.0 4.0 0.00 0.00 0.00 46 1017.9
20260505033603 61 0 0.0 0.0 0.00 0.00 0.00 46 1017.9
20260505032724 61 0 0.0 0.0 0.00 0.00 0.00 46 1017.9
20260505031803 61 0 0.0 0.0 0.00 0.00 0.00 46 1017.9
20260505030903 61 0 0.0 0.0 0.00 0.00 0.00 47 1017.9
20260505030003 61 0 0.0 0.0 0.00 0.00 0.00 47 1017.9
20260505025403 61 0 0.0 0.0 0.00 0.00 0.00 47 1017.9
20260505024503 61 271 0.0 2.0 0.00 0.00 0.00 48 1017.9
20260505023603 61 0 0.0 0.0 0.00 0.00 0.00 48 1017.9
20260505022703 61 332 0.0 5.0 0.00 0.00 0.00 48 1017.9
20260505021803 61 306 2.0 8.0 0.00 0.00 0.00 48 1017.9
20260505020903 62 327 0.0 7.0 0.00 0.00 0.00 47 1017.9
20260505020024 62 265 1.0 6.0 0.00 0.00 0.00 46 1017.9
20260505015403 62 289 1.0 8.0 0.00 0.00 0.00 45 1017.9
20260505014524 63 297 1.0 9.0 0.00 0.00 0.00 45 1017.9
20260505013624 63 283 1.0 14.0 0.00 0.00 0.00 44 1017.9
20260505012703 64 290 3.0 11.0 0.00 0.00 0.00 43 1017.9
20260505011803 65 282 4.0 14.0 0.00 0.00 0.00 41 1017.9
20260505010903 67 294 4.0 20.0 0.00 0.00 0.00 37 1017.9
20260505010024 69 273 1.0 10.0 0.00 0.00 0.00 32 1017.9
20260505005403 69 237 2.0 12.0 0.00 0.00 0.00 30 1017.9
20260505004503 69 191 3.0 12.0 0.00 0.00 0.00 30 1017.9
20260505003603 70 191 5.0 13.0 0.00 0.00 0.00 29 1017.9
20260505002724 71 198 4.0 13.0 0.00 0.00 0.00 28 1017.9
20260505001803 71 240 2.0 10.0 0.00 0.00 0.00 28 1017.9
20260505000903 71 233 1.0 6.0 0.00 0.00 0.00 29 1017.9
20260505000003 70 196 5.0 19.0 0.00 0.00 0.00 29 1017.9
20260504235403 70 196 7.0 19.0 0.00 0.00 0.00 29 1017.9
20260504234503 70 217 2.0 14.0 0.00 0.00 0.00 30 1017.9
20260504233603 70 181 1.0 10.0 0.00 0.00 0.00 33 1017.9
20260504232703 70 199 3.0 10.0 0.00 0.00 0.00 33 1017.9
20260504231803 70 58 3.0 12.0 0.00 0.00 0.00 34 1017.9
20260504230903 69 40 2.0 10.0 0.00 0.00 0.00 35 1017.9
20260504230003 69 44 4.0 10.0 0.00 0.00 0.00 35 1017.9
20260504225403 69 50 2.0 9.0 0.00 0.00 0.00 34 1017.9
20260504224503 69 206 3.0 9.0 0.00 0.00 0.00 34 1017.9
20260504223603 69 208 2.0 12.0 0.00 0.00 0.00 34 1017.9
20260504222703 70 153 0.0 5.0 0.00 0.00 0.00 36 1017.9
20260504221803 69 193 1.0 9.0 0.00 0.00 0.00 34 1017.9
20260504220903 70 197 2.0 9.0 0.00 0.00 0.00 31 1017.9
20260504220003 71 222 1.0 6.0 0.00 0.00 0.00 29 1017.9
20260504215403 71 250 2.0 6.0 0.00 0.00 0.00 28 1017.9
20260504214503 72 346 0.0 3.0 0.00 0.00 0.00 28 1017.9
20260504213603 72 351 1.0 8.0 0.00 0.00 0.00 29 1017.9
20260504212724 73 338 1.0 6.0 0.00 0.00 0.00 30 1017.9
20260504211803 71 333 1.0 7.0 0.00 0.00 0.00 32 1017.9
20260504210903 71 8 4.0 12.0 0.00 0.00 0.00 31 1017.9
20260504210003 71 7 5.0 13.0 0.00 0.00 0.00 32 1017.9
20260504205403 71 4 5.0 19.0 0.00 0.00 0.00 32 1017.9
20260504204524 71 9 6.0 19.0 0.00 0.00 0.00 32 1017.9
20260504203624 72 328 6.0 24.0 0.00 0.00 0.00 31 1017.9
20260504202703 74 334 3.0 10.0 0.00 0.00 0.00 26 1017.9
20260504201803 72 28 2.0 8.0 0.00 0.00 0.00 27 1017.9
20260504200903 71 90 2.0 8.0 0.00 0.00 0.00 32 1017.9
20260504200024 70 178 2.0 8.0 0.00 0.00 0.00 32 1017.9
20260504195403 70 68 2.0 9.0 0.00 0.00 0.00 32 1017.9
20260504194503 69 68 2.0 6.0 0.00 0.00 0.00 34 1017.9
20260504193603 69 67 1.0 5.0 0.00 0.00 0.00 36 1017.9
20260504192703 68 141 1.0 6.0 0.00 0.00 0.00 37 1017.9
20260504191824 68 62 0.0 5.0 0.00 0.00 0.00 37 1017.9
20260504190903 68 40 2.0 10.0 0.00 0.00 0.00 38 1017.9
20260504190003 68 58 1.0 7.0 0.00 0.00 0.00 37 1017.9
20260504185403 68 57 1.0 5.0 0.00 0.00 0.00 36 1017.9
20260504184503 68 66 3.0 6.0 0.00 0.00 0.00 37 1017.9
20260504183603 69 61 3.0 9.0 0.00 0.00 0.00 36 1017.9
20260504182703 68 4 1.0 4.0 0.00 0.00 0.00 37 1017.9
20260504181803 68 26 3.0 6.0 0.00 0.00 0.00 37 1017.9